Location: Cruquius
(52.3348°N, 4.6319°E)
Time: 16:03:37
(UTC+00:00)

Cosmos 2181 Rocket - Visible Passes

Search period start: 19 September 2021 00:00
Search period end: 29 September 2021 00:00
Orbit: 951 x 1016 km, 82.9° (Epoch: 18 September)

Date Brightness Start Highest point End Pass type
(mag) Time Alt. Az. Time Alt. Az. Time Alt. Az.
19 Sep 5.1 19:14:51 10° NNW 19:20:41 46° W 19:26:33 10° SSW visible
20 Sep 6.0 19:43:03 10° NNW 19:48:06 27° W 19:53:11 10° SW visible
21 Sep 4.2 18:24:35 10° NNW 18:30:46 79° W 18:37:00 10° S visible
21 Sep 6.7 20:11:47 10° NW 20:15:20 16° WNW 20:18:54 10° WSW visible
22 Sep 5.1 18:52:31 10° NNW 18:58:23 47° W 19:04:18 10° SSW visible
23 Sep 6.1 19:20:42 10° NNW 19:25:49 28° W 19:30:58 10° SW visible
24 Sep 4.2 18:02:16 10° NNW 18:08:28 81° W 18:14:44 10° S visible
24 Sep 6.8 19:49:23 10° NW 19:53:03 17° WNW 19:56:46 10° WSW visible
25 Sep 5.1 18:30:11 10° NNW 18:36:05 48° W 18:42:04 10° SSW visible
26 Sep 6.1 18:58:21 10° NNW 19:03:32 29° W 19:08:45 10° SW visible
27 Sep 6.9 19:26:59 10° NW 19:30:47 17° WNW 19:34:37 10° WSW visible
28 Sep 5.1 18:07:51 10° NNW 18:13:48 50° W 18:19:49 10° SSW visible
